Location: Lafig�re
(44.4503°N, 4.0357°E)
Time: 15:28:19
(UTC+00:00)

Transit 2A Rocket - Pass Details

Date: 23 January 2021
Orbit: 594 x 908 km, 66.7° (Epoch: 06 March)

Event Time Altitude Azimuth Distance (km) Brightness Sun altitude
Rises 20:19:17 0° 331° (NNW) 2,929 8.5 -38.7°
Enters shadow 20:20:16 - 333° (NNW) 2,537 8.1 -38.9°
Reaches altitude 10° 20:21:40 10° 337° (NNW) 1,986 - -39.1°
Maximum altitude 20:25:59 51° 53° (NE) 759 - -39.9°
Drops below altitude 10° 20:30:10 10° 130° (SE) 1,923 - -40.6°
Sets 20:32:26 0° 136° (SE) 2,826 - -41.0°
